Location: Recife
(8.0585°S, 34.8848°W)
Time: 12:32:41
(UTC-03:00)

Vanguard 1 Rocket - Pass Details

Date: 16 April 2026
Orbit: 655 x 4212 km, 34.3° (Epoch: 12 May)

Event Time Altitude Azimuth Distance (km) Brightness Sun altitude
Rises 17:40:02 0° 242° (WSW) 5,602 12.4 -6.5°
Reaches altitude 10° 17:43:02 10° 244° (WSW) 4,960 12.1 -7.2°
Maximum altitude 17:58:57 68° 324° (NW) 3,676 10.6 -11.1°
Drops below altitude 10° 18:24:40 10° 43° (NE) 7,400 11.7 -17.4°
Sets 18:30:33 0° 46° (NE) 8,345 11.9 -18.9°
